Voltar ao catálogo

COSMOS 1275 DEB

AtivoPO
NORAD 42116·DEBRIS·🇷🇺 Russia

Lançado Jun 4, 1981 de Plesetsk Cosmodrome

Loading…

Próximas Passagens (próximas 24 horas)

TLE

EnvelhecendoSource: Space-Track

Época: Sep 4, 2026, 20:15 UTC

1 42116U 81053QC  26247.84405183  .00002538  00000-0  61313-3 0  9990
2 42116  83.1171 282.9943 0020415 224.6773 259.0330 14.52692369917621

Acompanhe COSMOS 1275 DEB em tempo real com AllMySat

Download on the App Store